• Processing (Info)

  • MPEC 2019-U93 : 2019 UV2

    The following Minor Planet Electronic Circular may be linked-to from your own Web pages, but must not otherwise be redistributed electronically.

    A form allowing access to any MPEC is at the bottom of this page.


    Read MPEC 2019-U92 Read MPEC 2019-U94


    M.P.E.C. 2019-U93                              Issued 2019 October 22, 04:34 UT
    
         The Minor Planet Electronic Circulars contain information on unusual
             minor planets and routine data on comets.  They are published
        on behalf of Division F of the International Astronomical Union by the
              Minor Planet Center, Smithsonian Astrophysical Observatory,
                              Cambridge, MA 02138, U.S.A.
    
                 Prepared using the Tamkin Foundation Computer Network
    
                                  MPC@CFA.HARVARD.EDU
                URL https://www.minorplanetcenter.net/    ISSN 1523-6714
    
                                    2019 UV2                                 
    
    
    Observations:
         K19U02V* C2019 10 20.34665 02 12 19.30 +01 26 13.2          21.4 GVEU093G96
         K19U02V  C2019 10 20.35222 02 12 18.33 +01 26 32.4          21.2 GVEU093G96
         K19U02V  C2019 10 20.35779 02 12 17.36 +01 26 51.7          22.2 GVEU093G96
         K19U02V  C2019 10 20.36335 02 12 16.40 +01 27 10.4          21.8 GVEU093G96
         K19U02V  C2019 10 20.45196 02 12 01.31 +01 32 14.7                VEU093I52
         K19U02V  C2019 10 20.45845 02 12 00.23 +01 32 38.0          21.9 GVEU093I52
         K19U02V  C2019 10 21.30914 02 09 46.35 +02 21 18.7          20.7 GVEU093G96
         K19U02V  C2019 10 21.31360 02 09 45.60 +02 21 33.5          20.8 GVEU093G96
         K19U02V  C2019 10 21.31504 02 09 45.36 +02 21 38.8          21.0 GVEU093G96
         K19U02V  C2019 10 21.31649 02 09 45.11 +02 21 43.9          20.8 GVEU093G96
         K19U02V IC2019 10 21.93097702 08 08.02 +02 56 32.2          20.8 GVEU093L01
         K19U02V IC2019 10 21.93518102 08 07.27 +02 56 45.4          20.6 GVEU093L01
         K19U02V KC2019 10 21.94211602 08 06.12 +02 57 10.6          21.0 GVEU093L01
    
    Observer details:
    G96 Mt. Lemmon Survey.  Observer D. C. Fuls.  Measurers E. J. Christensen, G. 
       A. Farneth, D. C. Fuls, A. R. Gibbs, A. D. Grauer, H. Groeller, R. A. 
       Kowalski, S. M. Larson, G. J. Leonard, T. A. Pruyne, D. Rankin, R. L. Seaman,
        F. C. Shelly, K. W. Wierzchos.  1.5-m reflector + 10K CCD.
    I52 Steward Observatory, Mt. Lemmon Station.  Observer H. Groeller.  Measurers 
       E. J. Christensen, G. A. Farneth, D. C. Fuls, A. R. Gibbs, A. D. Grauer, H. 
       Groeller, R. A. Kowalski, S. M. Larson, G. J. Leonard, T. A. Pruyne, D. 
       Rankin, R. L. Seaman, F. C. Shelly, K. W. Wierzchos.  1.0-m reflector + CCD.
    L01 Visnjan Observatory, Tican.  Observers K. Korlevic, F. Valentine.  Measurer 
       K. Korlevic.  1.0-m f/2.9 reflector + CCD.
    
    Orbital elements:
    2019 UV2                                                 Earth MOID = 0.2287 AU
    Epoch 2019 Apr. 27.0 TT = JDT 2458600.5                 Bell
    M 295.54701              (2000.0)            P               Q
    n   0.51643021     Peri.  308.79014     +0.94447071     +0.28943796
    a   1.5386091      Node    35.18622     -0.14785166     +0.79711846
    e   0.2393182      Incl.   15.66243     -0.29345352     +0.52993191
    P   1.91           H   23.4           G   0.15           U   9
    Residuals in seconds of arc
    191020 G96  0.1+  0.2+    191020 I52  0.2+  0.0     191021 L01  0.2+  0.1+
    191020 G96  0.0   0.2+    191021 G96  0.1-  0.3+    191021 L01  0.4-  1.0-
    191020 G96  0.2-  0.3+    191021 G96  0.1+  0.2-    191021 L01  0.1-  0.6+
    191020 G96  0.2-  0.1-    191021 G96  0.2+  0.2+
    191020 I52  0.0   0.9-    191021 G96  0.2+  0.3+
    
    Ephemeris:
    2019 UV2                 a,e,i = 1.54, 0.24, 16                  q = 1.1704
    Date    TT    R. A. (2000) Decl.     Delta      r    Elong.  Phase     V
    2019 09 22    03 11 48.5 -22 29 22   0.2659  1.1840   127.3    42.4    22.5
    ...
    2019 10 07    02 46 22.8 -11 12 59   0.2397  1.2066   146.4    27.3    21.9
    ...
    2019 10 15    02 26 32.4 -03 43 49   0.2379  1.2225   159.1    16.9    21.6
    ...
    2019 10 21    02 10 35.6 +02 03 55   0.2441  1.2360   168.8     9.0    21.4
    2019 10 22    02 07 56.8 +03 00 48   0.2459  1.2384   170.2     7.8    21.4
    2019 10 23    02 05 19.2 +03 57 04   0.2478  1.2408   171.6     6.7    21.3
    ...
    2019 10 29    01 50 18.4 +09 16 47   0.2637  1.2559   173.6     5.0    21.4
    ...
    2019 11 06    01 33 39.6 +15 18 36   0.2956  1.2776   163.5    12.7    22.0
    ...
    2019 11 21    01 16 34.8 +23 08 29   0.3830  1.3223   145.8    24.9    23.1
    
    A. U. Tomatic                (C) Copyright 2019 MPC           M.P.E.C. 2019-U93
    


    Read MPEC 2019-U92 Read MPEC 2019-U94


    MPEC number:

    Enter an MPEC number in one of the following forms:

    • 1997-B01 (the full form)
    • J97B01 (the packed version of the full form)
    • B01 (the abbreviated form)